| time (UTC) | temp C | wind direction | speed KPH | gust KPH | rain 1hr cm | rain 24hr cm | rain mn cm | humidity % | barometer mb |
| 20260502193006 | 19 | 239 | 1.6 | 4.8 | 0.00 | 0.00 | 0.00 | 37 | 1013.8 |
| 20260502192003 | 20 | 253 | 0.0 | 3.2 | 0.00 | 0.00 | 0.00 | 37 | 1013.7 |
| 20260502191006 | 21 | 266 | 3.2 | 6.4 | 0.00 | 0.00 | 0.00 | 35 | 1013.7 |
| 20260502190004 | 21 | 249 | 6.4 | 11.3 | 0.00 | 0.00 | 0.00 | 31 | 1013.7 |
| 20260502185006 | 21 | 250 | 8.0 | 11.3 | 0.00 | 0.00 | 0.00 | 31 | 1013.7 |
| 20260502184007 | 22 | 252 | 8.0 | 14.5 | 0.00 | 0.00 | 0.00 | 31 | 1013.7 |
| 20260502183222 | 22 | 252 | 8.0 | 12.9 | 0.00 | 0.00 | 0.00 | 31 | 1013.6 |
| 20260502182003 | 22 | 241 | 6.4 | 11.3 | 0.00 | 0.00 | 0.00 | 31 | 1013.5 |
| 20260502181003 | 22 | 238 | 6.4 | 9.7 | 0.00 | 0.00 | 0.00 | 30 | 1013.5 |
| 20260502164003 | 26 | 206 | 6.4 | 12.9 | 0.00 | 0.00 | 0.00 | 25 | 1013.9 |
| 20260502163006 | 26 | 189 | 4.8 | 12.9 | 0.00 | 0.00 | 0.00 | 24 | 1013.9 |
| 20260502162003 | 26 | 184 | 4.8 | 9.7 | 0.00 | 0.00 | 0.00 | 24 | 1014.0 |
| 20260502161003 | 26 | 164 | 6.4 | 16.1 | 0.00 | 0.00 | 0.00 | 24 | 1014.2 |
| 20260502152003 | 27 | 159 | 8.0 | 17.7 | 0.00 | 0.00 | 0.00 | 23 | 1014.6 |
| 20260502151221 | 27 | 213 | 8.0 | 17.7 | 0.00 | 0.00 | 0.00 | 23 | 1014.7 |
| 20260502123006 | 26 | 155 | 8.0 | 17.7 | 0.00 | 0.00 | 0.00 | 28 | 1017.2 |
| 20260502122003 | 26 | 188 | 9.7 | 17.7 | 0.00 | 0.00 | 0.00 | 30 | 1017.4 |
| 20260502121006 | 25 | 139 | 9.7 | 19.3 | 0.00 | 0.00 | 0.00 | 28 | 1017.5 |
| 20260502115003 | 25 | 143 | 8.0 | 19.3 | 0.00 | 0.00 | 0.00 | 32 | 1017.8 |
| 20260502114003 | 25 | 142 | 9.7 | 19.3 | 0.00 | 0.00 | 0.00 | 31 | 1018.0 |
| 20260502113006 | 25 | 152 | 8.0 | 19.3 | 0.00 | 0.00 | 0.00 | 30 | 1018.2 |
| 20260502112003 | 25 | 153 | 8.0 | 17.7 | 0.00 | 0.00 | 0.00 | 30 | 1018.4 |
| 20260502111006 | 25 | 167 | 8.0 | 19.3 | 0.00 | 0.00 | 0.00 | 32 | 1018.5 |
| 20260502110006 | 25 | 153 | 9.7 | 19.3 | 0.00 | 0.00 | 0.00 | 32 | 1018.7 |
| 20260502105006 | 24 | 148 | 8.0 | 19.3 | 0.00 | 0.00 | 0.00 | 33 | 1018.7 |
| 20260502104006 | 24 | 167 | 9.7 | 22.5 | 0.00 | 0.00 | 0.00 | 33 | 1018.9 |
| 20260502103006 | 24 | 152 | 9.7 | 22.5 | 0.00 | 0.00 | 0.00 | 35 | 1019.0 |
| 20260502102006 | 23 | 158 | 11.3 | 32.2 | 0.00 | 0.00 | 0.00 | 36 | 1019.1 |
| 20260502101221 | 23 | 140 | 11.3 | 24.1 | 0.00 | 0.00 | 0.00 | 34 | 1019.1 |
| 20260502091006 | 22 | 179 | 11.3 | 22.5 | 0.00 | 0.00 | 0.00 | 39 | 1019.9 |
| 20260502071006 | 14 | 169 | 6.4 | 9.7 | 0.00 | 0.00 | 0.00 | 62 | 1021.3 |
| 20260502070007 | 13 | 184 | 6.4 | 12.9 | 0.00 | 0.00 | 0.00 | 62 | 1021.3 |
| 20260502065007 | 13 | 173 | 6.4 | 12.9 | 0.00 | 0.00 | 0.00 | 67 | 1021.4 |
| 20260502064006 | 12 | 174 | 4.8 | 12.9 | 0.00 | 0.00 | 0.00 | 67 | 1021.4 |
| 20260502063003 | 12 | 166 | 4.8 | 9.7 | 0.00 | 0.00 | 0.00 | 71 | 1021.5 |
| 20260502062006 | 11 | 169 | 4.8 | 12.9 | 0.00 | 0.00 | 0.00 | 74 | 1021.5 |
| 20260502061003 | 10 | 179 | 6.4 | 12.9 | 0.00 | 0.00 | 0.00 | 76 | 1021.4 |
| 20260502060217 | 10 | 176 | 6.4 | 14.5 | 0.00 | 0.00 | 0.00 | 77 | 1021.5 |
| 20260502055003 | 9 | 170 | 3.2 | 11.3 | 0.00 | 0.00 | 0.00 | 81 | 1021.6 |
| 20260502054003 | 8 | 173 | 3.2 | 11.3 | 0.00 | 0.00 | 0.00 | 84 | 1021.7 |
| 20260502053217 | 7 | 181 | 1.6 | 8.0 | 0.00 | 0.00 | 0.00 | 85 | 1021.7 |
| 20260502052006 | 7 | 187 | 1.6 | 4.8 | 0.00 | 0.00 | 0.00 | 86 | 1021.6 |
| 20260502051006 | 6 | 161 | 0.0 | 6.4 | 0.00 | 0.00 | 0.00 | 88 | 1021.7 |
| 20260502050008 | 6 | 0 | 0.0 | 0.0 | 0.00 | 0.00 | 0.00 | 89 | 1021.7 |
| 20260502045003 | 6 | 170 | 1.6 | 4.8 | 0.00 | 0.00 | 0.00 | 89 | 1021.6 |
| 20260502044003 | 5 | 0 | 0.0 | 8.0 | 0.00 | 0.00 | 0.00 | 88 | 1021.7 |
| 20260502043006 | 5 | 0 | 0.0 | 0.0 | 0.00 | 0.00 | 0.00 | 88 | 1021.7 |
| 20260502042006 | 5 | 0 | 0.0 | 0.0 | 0.00 | 0.00 | 0.00 | 87 | 1021.7 |
| 20260502041003 | 5 | 0 | 0.0 | 0.0 | 0.00 | 0.00 | 0.00 | 87 | 1021.7 |
| 20260502040003 | 5 | 0 | 0.0 | 0.0 | 0.00 | 0.00 | 0.00 | 87 | 1021.8 |
| 20260502035003 | 5 | 0 | 0.0 | 0.0 | 0.00 | 0.00 | 0.00 | 87 | 1021.9 |
| 20260502034003 | 5 | 0 | 0.0 | 0.0 | 0.00 | 0.00 | 0.00 | 87 | 1021.9 |
| 20260502033006 | 6 | 0 | 0.0 | 0.0 | 0.00 | 0.00 | 0.00 | 87 | 1021.9 |
| 20260502032003 | 6 | 0 | 0.0 | 0.0 | 0.00 | 0.00 | 0.00 | 86 | 1022.0 |
| 20260502031003 | 6 | 0 | 0.0 | 0.0 | 0.00 | 0.00 | 0.00 | 86 | 1022.0 |
| 20260502030006 | 6 | 0 | 0.0 | 0.0 | 0.00 | 0.00 | 0.00 | 85 | 1022.2 |
| 20260502025003 | 6 | 0 | 0.0 | 0.0 | 0.00 | 0.00 | 0.00 | 85 | 1022.1 |
| 20260502024003 | 6 | 0 | 0.0 | 0.0 | 0.00 | 0.00 | 0.00 | 84 | 1022.2 |
| 20260502023006 | 6 | 0 | 0.0 | 0.0 | 0.00 | 0.00 | 0.00 | 84 | 1022.1 |
| 20260502022006 | 6 | 0 | 0.0 | 0.0 | 0.00 | 0.00 | 0.00 | 83 | 1022.2 |
| 20260502021003 | 7 | 0 | 0.0 | 0.0 | 0.00 | 0.00 | 0.00 | 82 | 1022.2 |
| 20260502020003 | 7 | 0 | 0.0 | 1.6 | 0.00 | 0.00 | 0.00 | 81 | 1022.2 |
| 20260502015006 | 7 | 0 | 0.0 | 0.0 | 0.00 | 0.00 | 0.00 | 80 | 1022.2 |
| 20260502014003 | 7 | 0 | 0.0 | 1.6 | 0.00 | 0.00 | 0.00 | 81 | 1022.3 |
| 20260502013003 | 7 | 0 | 0.0 | 1.6 | 0.00 | 0.00 | 0.00 | 81 | 1022.3 |
| 20260502012003 | 8 | 0 | 0.0 | 0.0 | 0.00 | 0.00 | 0.00 | 81 | 1022.3 |
| 20260502011220 | 8 | 0 | 0.0 | 0.0 | 0.00 | 0.00 | 0.00 | 81 | 1022.4 |
| 20260502010218 | 8 | 213 | 3.2 | 4.8 | 0.00 | 0.00 | 0.00 | 80 | 1022.4 |
| 20260502005003 | 8 | 209 | 0.0 | 4.8 | 0.00 | 0.00 | 0.00 | 79 | 1022.5 |
| 20260502004006 | 8 | 0 | 0.0 | 0.0 | 0.00 | 0.00 | 0.00 | 78 | 1022.6 |
| 20260502003006 | 8 | 0 | 0.0 | 1.6 | 0.00 | 0.00 | 0.00 | 77 | 1022.6 |
| 20260502002003 | 8 | 176 | 0.0 | 3.2 | 0.00 | 0.00 | 0.00 | 76 | 1022.7 |
| 20260502001003 | 9 | 0 | 0.0 | 4.8 | 0.00 | 0.00 | 0.00 | 75 | 1022.7 |
| 20260502000006 | 10 | 0 | 0.0 | 0.0 | 0.00 | 0.00 | 0.00 | 72 | 1022.7 |
| 20260501235006 | 10 | 0 | 0.0 | 0.0 | 0.00 | 0.00 | 0.00 | 72 | 1022.8 |
| 20260501234003 | 10 | 0 | 0.0 | 0.0 | 0.00 | 0.00 | 0.00 | 72 | 1022.8 |
| 20260501233003 | 10 | 0 | 0.0 | 0.0 | 0.00 | 0.00 | 0.00 | 72 | 1022.9 |
| 20260501232003 | 11 | 0 | 0.0 | 0.0 | 0.00 | 0.00 | 0.00 | 71 | 1022.9 |
| 20260501231006 | 11 | 0 | 0.0 | 0.0 | 0.00 | 0.00 | 0.00 | 69 | 1023.0 |
| 20260501230003 | 11 | 0 | 0.0 | 0.0 | 0.00 | 0.00 | 0.00 | 68 | 1023.0 |
| 20260501225003 | 11 | 0 | 0.0 | 1.6 | 0.00 | 0.00 | 0.00 | 67 | 1023.0 |
| 20260501224006 | 12 | 0 | 0.0 | 1.6 | 0.00 | 0.00 | 0.00 | 66 | 1022.9 |
| 20260501223007 | 12 | 0 | 0.0 | 1.6 | 0.00 | 0.00 | 0.00 | 66 | 1023.0 |
| 20260501222003 | 12 | 215 | 1.6 | 3.2 | 0.00 | 0.00 | 0.00 | 65 | 1023.0 |
| 20260501221003 | 12 | 225 | 1.6 | 4.8 | 0.00 | 0.00 | 0.00 | 65 | 1023.0 |
| 20260501220221 | 12 | 0 | 0.0 | 3.2 | 0.00 | 0.00 | 0.00 | 63 | 1023.0 |
| 20260501215008 | 12 | 0 | 0.0 | 0.0 | 0.00 | 0.00 | 0.00 | 63 | 1023.0 |
| 20260501214006 | 13 | 0 | 0.0 | 0.0 | 0.00 | 0.00 | 0.00 | 62 | 1023.0 |
| 20260501213006 | 13 | 0 | 0.0 | 3.2 | 0.00 | 0.00 | 0.00 | 61 | 1022.9 |
| 20260501212003 | 13 | 0 | 0.0 | 1.6 | 0.00 | 0.00 | 0.00 | 60 | 1023.0 |
| 20260501211006 | 14 | 0 | 0.0 | 4.8 | 0.00 | 0.00 | 0.00 | 59 | 1023.0 |
| 20260501210003 | 14 | 0 | 0.0 | 0.0 | 0.00 | 0.00 | 0.00 | 58 | 1023.0 |
| 20260501205220 | 14 | 0 | 0.0 | 1.6 | 0.00 | 0.00 | 0.00 | 58 | 1023.0 |
| 20260501204006 | 15 | 348 | 1.6 | 3.2 | 0.00 | 0.00 | 0.00 | 57 | 1023.1 |
| 20260501203003 | 15 | 338 | 3.2 | 4.8 | 0.00 | 0.00 | 0.00 | 55 | 1023.1 |
| 20260501202222 | 15 | 348 | 3.2 | 4.8 | 0.00 | 0.00 | 0.00 | 55 | 1023.1 |
| 20260501201006 | 15 | 352 | 1.6 | 4.8 | 0.00 | 0.00 | 0.00 | 54 | 1023.1 |
| 20260501200012 | 15 | 356 | 1.6 | 4.8 | 0.00 | 0.00 | 0.00 | 54 | 1023.1 |
| 20260501195003 | 15 | 339 | 1.6 | 3.2 | 0.00 | 0.00 | 0.00 | 54 | 1023.1 |